Погода в Новолуговом

Россия / Новосибирская область     54°58′39″N   83°07′16″E
темп.,
°C
ветер,
м/с
пор.,
м/с
влажн.,
%
обл.,
%
осадки,
мм/ч
давл.,
гПа
погр.,
м
12 мая, ср
ср1201:00+12с6145899 0.0 1017391
04:00+10ссв5116291 0.0 1017272
07:00+9ссв39696 0.0 1018246
10:00+15с57475 0.0 1017628
13:00+19с54336 0.0 10162119
16:00+20с332965 0.0 10162454
19:00+20сз333098 0.0 10152078
22:00+14зсз35425 0.0 101675
13 мая, чт
чт1301:00+12с114699 0.0 101510
04:00+11ююз2247100 0.0 101512
07:00+11зюз2251100 0.0 101458
10:00+14ссз4547100 0.0 1014569
13:00+15зсз3254100 0.0 10141166
16:00+13зсз347293 1.5 1014503
19:00+14ссз5664100 2.3 10131017
22:00+10с497313 0.1 1014382
14 мая, пт
пт1401:00+8с367482 0.1 1015111
04:00+7сз388039 0.0 1016198
07:00+7ссз4107563 0.0 1018333
10:00+10с6968100 0.0 10191150
13:00+13ссз68415 0.1 10201674
16:00+14ссз6827100 0.0 10211891
19:00+14ссз563078 0.0 10231624
22:00+9сз224180 0.0 102410
15 мая, сб
сб1501:00+9зюз2242100 0.0 102411
04:00+9ююз3548100 0.1 102498
07:00+9юз41054100 0.1 1024268
10:00+14юз6104391 0.0 1023549
13:00+20зюз8103574 0.0 10211313
16:00+22з81037100 0.0 10191821
19:00+17з6126483 0.0 1019581
22:00+14ююз4127199 0.0 1018219
16 мая, вс
вс1601:00+13ююз3476100 0.3 101773
04:00+12ююз348097 0.5 101559
07:00+13ю248396 0.5 1015100
10:00+19юз456494 0.0 1014457
13:00+24ююз6946100 0.1 10121158
16:00+26з81137100 0.9 10092445
19:00+17сз91779100 1.8 1009550
22:00+17зсз510795 1.1 1009274